La Paz, Mexico

8:28 AM MST on December 15, 2017 (GMT -0700)
Gen Manuel Marquez De Leon

Weather History for MMLP - April, 2012

Change the Weather History Date:

Saturday, April 21, 2012

  Actual Average Record
Temperature  
Mean Temperature 80 °F -  
Max Temperature 98 °F 90 °F 102 °F (1999)
Min Temperature 62 °F 59 °F 51 °F (2005)
Cooling Degree Days 15    
Growing Degree Days 30 (Base 50)    
Moisture  
Dew Point 42 °F    
Average Humidity 28    
Maximum Humidity 77    
Minimum Humidity 10    
Precipitation  
Precipitation 0.00 in - - ()
Sea Level Pressure  
Sea Level Pressure 29.89 in    
Wind  
Wind Speed 8 mph ()    
Max Wind Speed 20 mph    
Max Gust Speed -    
Visibility 11.3 miles    
Events      
Averages and records for this station are not official NWS values.
T = Trace of Precipitation, MM = Missing Value Source: Averaged Metar Reports

Daily Weather History Graph

Daily Weather History Graph

Search for Another Location

Airport or City:

Trip Planner

Search our weather history database for the weather conditions in past years. The results will help you decide how hot, cold, wet, or windy it might be!

Date:

Astronomy

Apr. 21, 2012 Rise Set
Actual Time 6:54 AM MDT 7:46 PM MDT
Civil Twilight 6:30 AM MDT 8:09 PM MDT
Nautical Twilight 6:03 AM MDT 8:37 PM MDT
Astronomical Twilight 5:35 AM MDT 9:05 PM MDT
Moon 6:57 AM MDT (4/21) 8:21 PM MDT (4/21)
Length of Visible Light 13h 38m
Length of Day
12h 51m
New Moon, 0% of the Moon is Illuminated
Apr 21
New Moon
Apr 29
First Quarter
May 5
Full
May 12
Last Quarter
May 20
New

Hourly Weather History & Observations

Time (MDT) Temp. Dew Point Humidity Pressure Visibility Wind Dir Wind Speed Gust Speed Precip Events Conditions
5:42 AM 60.8 °F 50.0 °F 68% 29.99 in 10.0 mi South 11.5 mph - N/A   Clear
6:42 AM 59.0 °F 51.8 °F 77% 29.89 in 7.0 mi South 10.4 mph - N/A   Clear
7:41 AM 59.0 °F 51.8 °F 77% 29.91 in 7.0 mi South 9.2 mph - N/A   Clear
8:42 AM 66.2 °F 51.8 °F 60% 30.04 in 8.0 mi South 11.5 mph - N/A   Clear
9:41 AM 73.4 °F 48.2 °F 41% 29.92 in 10.0 mi South 10.4 mph - N/A   Clear
10:49 AM 80.6 °F 42.8 °F 26% 29.93 in 12.0 mi South 5.8 mph - N/A   Clear
11:41 AM 87.8 °F 32.0 °F 14% 30.01 in 15.0 mi Calm Calm - N/A   Clear
11:50 AM 91 °F 65 °F 32% 29.92 in 19 mi South 6.7 mph - -  
12:46 PM 91.4 °F 28.4 °F 10% 29.88 in 15.0 mi NNW 9.2 mph - N/A   Clear
1:48 PM 91.4 °F 26.6 °F 10% 29.87 in 15.0 mi North 11.5 mph - N/A   Clear
2:40 PM 91.4 °F 28.4 °F 10% 29.94 in 15.0 mi North 11.5 mph - N/A   Clear
2:50 PM 95 °F 53 °F 16% 29.85 in 19 mi NW 11.2 mph - -  
3:41 PM 91.4 °F 26.6 °F 10% 29.82 in 15.0 mi NNW 9.2 mph - N/A   Clear
4:40 PM 89.6 °F 42.8 °F 20% 29.81 in 10.0 mi NNW 9.2 mph - N/A   Clear
5:50 PM 97 °F 60 °F 21% 29.80 in 19 mi NW 4.5 mph - -  
5:57 PM 91.4 °F 33.8 °F 13% 29.91 in 10.0 mi NNW 6.9 mph - N/A   Clear
6:58 PM 89.6 °F 24.8 °F 10% 29.81 in 10.0 mi NW 6.9 mph - N/A   Clear
7:45 PM 86.0 °F 35.6 °F 17% 29.82 in 10.0 mi SW 9.2 mph - N/A   Clear
8:46 PM 82.4 °F 33.8 °F 17% 29.96 in 10.0 mi South 9.2 mph - N/A   Clear
8:50 PM 85 °F 58 °F 30% 29.83 in 2 mi SSE 6.7 mph - -  
9:40 PM 78.8 °F 35.6 °F 21% 29.87 in 10.0 mi South 13.8 mph - N/A   Clear
10:41 PM 75.2 °F 35.6 °F 24% 29.90 in 10.0 mi South 11.5 mph - N/A   Clear
11:50 PM 75 °F - % 29.88 in 2 mi South 20.1 mph - -